Hourly Data Report for October 06, 2013

All times are specified in Local Standard Time (LST). Add 1 hour to adjust for Daylight Saving Time where and when it is observed.

KAMLOOPS A
BRITISH COLUMBIA

50°42'09.000" N
120°26'55.000" W
345.30 m
1163781
71887
YKA

Download Data

Hourly Data (October 2013)
Hourly Data Report for October 6, 2013
Temp Definition
°C
Dew Point Temp Definition
°C
Rel Hum Definition
%
Wind Dir Definition
10's deg

Wind Spd Definition
km/h
Visibility Definition
km
Stn Press Definition
kPa
Hmdx Definition


Wind Chill Definition


Weather Definition


TIME
00:00 Legend Double Dagger 12.2 5.9 65 12 23 64.4 97.97     LegendNANA
01:00 Legend Double Dagger 12.1 6.0 66 12 25 64.4 97.93     Cloudy
02:00 Legend Double Dagger 12.0 5.9 66 11 22 64.4 97.87     LegendNANA
03:00 Legend Double Dagger 11.4 5.7 68 10 14 64.4 97.83     LegendNANA
04:00 Legend Double Dagger 11.7 6.0 68 12 16 64.4 97.80     Cloudy
05:00 Legend Double Dagger 11.2 5.8 69 11 18 64.4 97.78     LegendNANA
06:00 Legend Double Dagger 11.0 6.0 71 12 17 64.4 97.76     LegendNANA
07:00 Legend Double Dagger 11.1 6.3 72 12 15 64.4 97.74     Cloudy
08:00 Legend Double Dagger 11.5 6.3 70 12 18 64.4 97.75     LegendNANA
09:00 Legend Double Dagger 12.1 6.2 67 11 17 64.4 97.71     LegendNANA
10:00 Legend Double Dagger 13.5 6.2 61 10 21 64.4 97.67     Mostly Cloudy
11:00 Legend Double Dagger 14.9 5.5 53 7 18 64.4 97.58     LegendNANA
12:00 Legend Double Dagger 15.8 5.5 50 9 23 64.4 97.46     LegendNANA
13:00 Legend Double Dagger 16.5 6.1 50 9 18 64.4 97.34     Mostly Cloudy
14:00 Legend Double Dagger 18.6 5.9 43 7 24 64.4 97.19     LegendNANA
15:00 Legend Double Dagger 19.4 6.0 41 10 23 64.4 97.05     LegendNANA
16:00 Legend Double Dagger 18.1 5.1 42 9 24 64.4 96.94     Mostly Cloudy
17:00 Legend Double Dagger 16.8 4.9 45 9 25 64.4 96.85     LegendNANA
18:00 Legend Double Dagger 15.3 5.3 51 10 15 64.4 96.81     LegendNANA
19:00 Legend Double Dagger 15.2 5.5 52 11 21 64.4 96.76     Mostly Cloudy
20:00 Legend Double Dagger 14.4 5.6 55 9 20 64.4 96.74     LegendNANA
21:00 Legend Double Dagger 14.2 5.4 55 5 15 64.4 96.72     LegendNANA
22:00 Legend Double Dagger 13.7 5.2 56 6 14 64.4 96.69     Cloudy
23:00 Legend Double Dagger 13.0 5.2 59 7 13 64.4 96.75     LegendNANA

Notes on Data Quality.

Legend

  • E = Estimated
  • M = Missing
  • NA = Not Available
  • ‡ = Partner data that is not subject to review by the National Climate Archives
Date modified: